This demonstration page uses our WeatherBlox Daily Observations layout. Learn more.

Left ArrowRight Arrow

39.29038, -76.61219

Hourly Observations for August 8, 2015

Temp ( °F °C ) Dew Point ( °F °C ) Humidity (%) Winds ( mph kmh ) Pressure ( in mb ) Visibility ( mi km ) Precip ( " mm )
12:54 am 00:54 undefined 75 23.9 60 15.6 60 60 undefined N/A 29.91 1013 N/A 0.00 0.00
1:54 am 01:54 undefined 74 23.3 57 13.9 56 56 undefined N/A 29.91 1013 N/A 0.00 0.00
2:54 am 02:54 Partly Cloudy 73 22.8 60 15.6 64 64 undefined N/A 29.91 1013 N/A 0.00 0.00
3:54 am 03:54 undefined 73 22.8 59 15 62 62 undefined N/A 29.91 1013 N/A 0.00 0.00
4:54 am 04:54 undefined 72 22.2 60 15.6 66 66 undefined N/A 29.91 1013 N/A 0.00 0.00
5:54 am 05:54 undefined 71 21.7 59 15 66 66 undefined N/A 29.93 1013 N/A 0.00 0.00
6:54 am 06:54 undefined 71 21.7 59 15 66 66 undefined N/A 29.94 1014 N/A 0.00 0.00
7:54 am 07:54 Cloudy 72 22.2 60 15.6 66 66 undefined N/A 29.96 1015 N/A 0.00 0.00
8:54 am 08:54 Mostly Sunny 75 23.9 60 15.6 60 60 undefined N/A 29.97 1015 N/A 0.00 0.00
9:54 am 09:54 undefined 77 25 60 15.6 56 56 undefined N/A 29.98 1015 N/A 0.00 0.00
10:54 am 10:54 undefined 79 26.1 58 14.4 49 49 undefined N/A 29.98 1015 N/A 0.00 0.00
11:54 am 11:54 undefined 81 27.2 59 15 47 47 undefined N/A 29.98 1015 N/A 0.00 0.00
12:54 pm 12:54 undefined 81 27.2 58 14.4 45 45 undefined N/A 29.96 1015 N/A 0.00 0.00
1:54 pm 13:54 undefined 81 27.2 58 14.4 45 45 undefined N/A 29.96 1015 N/A 0.00 0.00
2:54 pm 14:54 Mostly Cloudy 82 27.7 76 24.4 82 82 undefined N/A 28.06 950 N/A 0.00 0.03
3:54 pm 15:54 undefined 81 27.2 59 15 47 47 undefined N/A 29.95 1014 N/A 0.00 0.00
4:54 pm 16:54 undefined 83 28.3 58 14.4 43 43 undefined N/A 29.94 1014 N/A 0.00 0.00
5:54 pm 17:54 undefined 82 27.8 57 13.9 42 42 undefined N/A 29.94 1014 N/A 0.00 0.00
6:54 pm 18:54 Mostly Sunny 63 17.2 58 14.4 84 84 undefined N/A 29.89 1012 N/A 0.00 0.03
7:54 pm 19:54 Mostly Sunny 80 26.7 58 14.4 47 47 undefined N/A 29.94 1014 N/A 0.00 0.00
8:54 pm 20:54 Partly Cloudy 82 27.8 71 21.7 69 69 undefined N/A 29.93 1014 N/A 0.00 0.00
9:54 pm 21:54 undefined 78 25.6 62 16.7 58 58 undefined N/A 29.98 1015 N/A 0.00 0.00
10:54 pm 22:54 undefined 77 25 62 16.7 60 60 undefined N/A 29.98 1015 N/A 0.00 0.00
11:54 pm 23:54 undefined 75 23.9 63 17.2 66 66 undefined N/A 29.98 1015 N/A 0.00 0.00

Powered by AerisWeather